Starlink 35213

operational
NORAD ID: 65638 Int'l Des: 2025-210 Owner: SPXS Country: US Constellation: starlink
NOTLE

Starlink 35213について

説明を読み込み中...

リアルタイム位置

3D地球を読み込み中...

次回通過

高度履歴

Altitude vs Time

uPlot chart will show altitude changes over time

軌道要素

1 65638U 25210S 25340.82326175 .00055999 00000-0 18888-2 0 9998
2 65638 53.1604 18.3782 0002154 89.2945 270.8302 15.30195547 13519
Epoch: Dec 6, 2025 • Age: 17 hours

現在のステータス

高度 479.0 km
速度 7.63 km/s
衛星直下点 -13.13°S, 94.55°E
打ち上げ日 Sep 18, 2025
運用期間 0.2 years
タイプ internet

技術仕様

分類 Payload
質量 575.00 kg
乾燥質量 530.00 kg
総質量 575.00 kg
長さ 0.30 m
直径 4.10 m
スパン 29.00 m
形状 Box + pan
製造者 SPXS
バスタイプ Starlink V2MO
フェーズステータス In Orbit
所有者/国 SPXS/US

大規模コンステレーション

Loading constellations...